Quakertown, PA

3:47 PM EDT on June 23, 2017 (GMT -0400)
Quakertown

Weather History for KUKT - February, 2013

Change the Weather History Date:

Tuesday, February 12, 2013

  Actual Average (KABE) Record (KABE)
Temperature  
Mean Temperature 34 °F -  
Max Temperature 41 °F 35 °F 68 °F (1999)
Min Temperature 26 °F 19 °F -6 °F (1979)
Degree Days  
Heating Degree Days 32    
Moisture  
Dew Point 24 °F    
Average Humidity 59    
Maximum Humidity 86    
Minimum Humidity 49    
Precipitation  
Precipitation 0.00 in - - ()
Sea Level Pressure  
Sea Level Pressure 29.90 in    
Wind  
Wind Speed - (North)    
Max Wind Speed -    
Max Gust Speed -    
Visibility 10 miles    
Events      
Averages and records for this station are not official NWS values.
T = Trace of Precipitation, MM = Missing Value Source: NWS Daily Summary

Daily Weather History Graph

Daily Weather History Graph

Search for Another Location

Airport or City:

Trip Planner

Search our weather history database for the weather conditions in past years. The results will help you decide how hot, cold, wet, or windy it might be!

Date:

Astronomy

Feb. 12, 2013 Rise Set
Actual Time 6:58 AM EST 5:33 PM EST
Civil Twilight 6:30 AM EST 6:01 PM EST
Nautical Twilight 5:58 AM EST 6:33 PM EST
Astronomical Twilight 5:26 AM EST 7:05 PM EST
Moon 7:53 AM EST (2/12) 8:32 PM EST (2/12)
Length of Visible Light 11h 31m
Length of Day
10h 35m
Waxing Crescent, 7% of the Moon is Illuminated
Feb 12
Waxing Crescent
Feb 17
First Quarter
Feb 25
Full
Mar 4
Last Quarter
Mar 11
New

Hourly Weather History & Observations

Time (EST) Temp. Dew Point Humidity Pressure Visibility Wind Dir Wind Speed Gust Speed Precip Events Conditions
12:15 AM 41.0 °F 32.0 °F 70% 29.76 in 10.0 mi North - - N/A   Clear
12:35 AM 41.0 °F 30.2 °F 65% 29.77 in 10.0 mi North - - N/A   Clear
12:55 AM 39.2 °F 28.4 °F 65% 29.77 in 10.0 mi North - - N/A   Clear
1:15 AM 39.2 °F 26.6 °F 61% 29.77 in 10.0 mi North - - N/A   Clear
1:35 AM 39.2 °F 26.6 °F 61% 29.78 in 10.0 mi North - - N/A   Clear
1:55 AM 39.2 °F 26.6 °F 61% 29.79 in 10.0 mi North - - N/A   Clear
2:15 AM 41.0 °F 26.6 °F 57% 29.80 in 10.0 mi North - - N/A   Clear
2:35 AM 41.0 °F 26.6 °F 57% 29.80 in 10.0 mi North - - N/A   Clear
2:55 AM 41.0 °F 26.6 °F 57% 29.80 in 10.0 mi North - - N/A   Clear
3:15 AM 39.2 °F 26.6 °F 61% 29.81 in 10.0 mi North - - N/A   Clear
3:35 AM 39.2 °F 26.6 °F 61% 29.82 in 10.0 mi North - - N/A   Scattered Clouds
3:55 AM 39.2 °F 24.8 °F 56% 29.83 in 10.0 mi North - - N/A   Overcast
4:15 AM 39.2 °F 24.8 °F 56% 29.83 in 10.0 mi North - - N/A   Overcast
4:35 AM 39.2 °F 24.8 °F 56% 29.84 in 10.0 mi North - - N/A   Overcast
4:55 AM 39.2 °F 23.0 °F 52% 29.84 in 10.0 mi North - - N/A   Overcast
5:15 AM 39.2 °F 23.0 °F 52% 29.85 in 10.0 mi North - - N/A   Overcast
5:35 AM 39.2 °F 23.0 °F 52% 29.85 in 10.0 mi North - - N/A   Overcast
5:55 AM 39.2 °F 23.0 °F 52% 29.85 in 10.0 mi North - - N/A   Overcast
6:15 AM 39.2 °F 23.0 °F 52% 29.85 in 10.0 mi North - - N/A   Overcast
6:35 AM 39.2 °F 23.0 °F 52% 29.85 in 10.0 mi North - - N/A   Overcast
6:55 AM 37.4 °F 23.0 °F 56% 29.86 in 10.0 mi North - - N/A   Mostly Cloudy
7:15 AM 39.2 °F 23.0 °F 52% 29.87 in 10.0 mi North - - N/A   Mostly Cloudy
7:35 AM 37.4 °F 24.8 °F 60% 29.88 in 10.0 mi North - - N/A   Overcast
7:55 AM 39.2 °F 24.8 °F 56% 29.89 in 10.0 mi North - - N/A   Mostly Cloudy
8:15 AM 39.2 °F 24.8 °F 56% 29.90 in 10.0 mi North - - N/A   Mostly Cloudy
8:35 AM 39.2 °F 23.0 °F 52% 29.91 in 10.0 mi North - - N/A   Overcast
8:55 AM 39.2 °F 23.0 °F 52% 29.91 in 8.0 mi North - - N/A   Overcast
9:15 AM 39.2 °F 23.0 °F 52% 29.90 in 10.0 mi North - - N/A   Scattered Clouds
9:35 AM 39.2 °F 23.0 °F 52% 29.92 in 10.0 mi North - - N/A   Scattered Clouds
9:55 AM 41.0 °F 24.8 °F 53% 29.93 in 10.0 mi North - - N/A   Mostly Cloudy
10:15 AM 41.0 °F 24.8 °F 53% 29.93 in 10.0 mi North - - N/A   Mostly Cloudy
10:35 AM 41.0 °F 23.0 °F 49% 29.94 in 10.0 mi North - - N/A   Scattered Clouds
10:55 AM 41.0 °F 23.0 °F 49% 29.94 in 10.0 mi North - - N/A   Mostly Cloudy
11:15 AM 41.0 °F 24.8 °F 53% 29.95 in 10.0 mi North - - N/A   Scattered Clouds
11:35 AM 41.0 °F 24.8 °F 53% 29.96 in 10.0 mi North - - N/A   Scattered Clouds
11:55 AM 41.0 °F 24.8 °F 53% 29.95 in 10.0 mi North - - N/A   Partly Cloudy
12:15 PM 41.0 °F 24.8 °F 53% 29.95 in 10.0 mi North - - N/A   Scattered Clouds
12:35 PM 41.0 °F 24.8 °F 53% 29.95 in 10.0 mi North - - N/A   Mostly Cloudy
12:55 PM 41.0 °F 24.8 °F 53% 29.95 in 10.0 mi North - - N/A   Overcast
1:15 PM 41.0 °F 24.8 °F 53% 29.94 in 10.0 mi North - - N/A   Overcast
1:35 PM 39.2 °F 23.0 °F 52% 29.95 in 10.0 mi North - - N/A   Mostly Cloudy
1:55 PM 41.0 °F 24.8 °F 53% 29.95 in 10.0 mi North - - N/A   Mostly Cloudy
2:15 PM 41.0 °F 24.8 °F 53% 29.93 in 10.0 mi North - - N/A   Mostly Cloudy
2:35 PM 41.0 °F 23.0 °F 49% 29.93 in 10.0 mi North - - N/A   Scattered Clouds
2:55 PM 41.0 °F 24.8 °F 53% 29.92 in 10.0 mi North - - N/A   Partly Cloudy
3:15 PM 39.2 °F 23.0 °F 52% 29.93 in 10.0 mi North - - N/A   Mostly Cloudy
3:35 PM 39.2 °F 23.0 °F 52% 29.89 in 10.0 mi North - - N/A   Mostly Cloudy
3:55 PM 39.2 °F 24.8 °F 56% 29.86 in 10.0 mi North - - N/A   Clear
4:15 PM 39.2 °F 23.0 °F 52% 29.87 in 10.0 mi North - - N/A   Partly Cloudy
4:35 PM 39.2 °F 23.0 °F 52% 29.90 in 9.0 mi North - - N/A   Partly Cloudy
4:55 PM 37.4 °F 23.0 °F 56% 29.95 in 10.0 mi North - - N/A   Partly Cloudy
5:15 PM 37.4 °F 23.0 °F 56% 29.96 in 10.0 mi North - - N/A   Mostly Cloudy
5:35 PM 39.2 °F 23.0 °F 52% 29.98 in 10.0 mi North - - N/A   Overcast
5:55 PM 37.4 °F 23.0 °F 56% 29.98 in 10.0 mi North - - N/A   Overcast
6:15 PM 37.4 °F 23.0 °F 56% 29.97 in 10.0 mi North - - N/A   Partly Cloudy
6:35 PM 35.6 °F 23.0 °F 60% 29.98 in 10.0 mi North - - N/A   Clear
6:55 PM 35.6 °F 23.0 °F 60% 29.99 in 10.0 mi North - - N/A   Clear
7:15 PM 35.6 °F 23.0 °F 60% 29.97 in 10.0 mi North - - N/A   Clear
7:35 PM 35.6 °F 23.0 °F 60% 29.98 in 10.0 mi North - - N/A   Clear
7:55 PM 35.6 °F 23.0 °F 60% 29.97 in 10.0 mi North - - N/A   Clear
8:15 PM 33.8 °F 23.0 °F 65% 29.96 in 10.0 mi North - - N/A   Clear
8:35 PM 32.0 °F 23.0 °F 69% 29.95 in 10.0 mi North - - N/A   Clear
8:55 PM 32.0 °F 23.0 °F 69% 29.94 in 10.0 mi North - - N/A   Clear
9:15 PM 32.0 °F 23.0 °F 69% 29.93 in 10.0 mi North - - N/A   Clear
9:35 PM 28.4 °F 23.0 °F 80% 29.93 in 10.0 mi North - - N/A   Clear
9:55 PM 28.4 °F 23.0 °F 80% 29.93 in 10.0 mi North - - N/A   Clear
10:15 PM 28.4 °F 23.0 °F 80% 29.93 in 10.0 mi North - - N/A   Clear
10:35 PM 26.6 °F 23.0 °F 86% 29.94 in 10.0 mi North - - N/A   Clear
10:55 PM 28.4 °F 23.0 °F 80% 29.95 in 10.0 mi North - - N/A   Clear
11:15 PM 28.4 °F 23.0 °F 80% 29.94 in 8.0 mi North - - N/A   Clear
11:35 PM 26.6 °F 23.0 °F 86% 29.95 in 10.0 mi North - - N/A   Clear
11:55 PM 26.6 °F 23.0 °F 86% 29.95 in 10.0 mi North - - N/A   Clear